Theta_e
308 308 307 307 307 307 307 307 307 307 307 307 308 308 308 308 311 323 329 321 321 319 316 319 323 327 328 328 331 332 335 335 337 337 339 337 341 337 335 335 337 337 340 339 338
307 307 306 306 306 306 307 307 307 307 307 307 308 308 308 308 315 325 322 320 317 317 317 323 326 328 329 330 331 332 333 331 334 338 338 339 339 338 336 336 335 336 339 340 341
307 306 306 306 306 306 306 306 307 307 307 307 308 308 308 308 325 327 321 320 316 315 318 325 326 329 330 331 330 330 330 332 332 335 337 336 339 339 340 340 336 337 341 341 345
307 306 306 306 306 306 306 306 307 307 307 307 308 308 310 317 328 325 319 319 316 316 321 326 327 329 331 330 330 329 330 330 332 338 339 340 339 339 338 342 338 338 341 346 341
307 306 307 306 306 306 307 307 307 307 307 307 307 308 312 328 327 322 316 318 318 319 322 327 329 331 331 330 330 331 335 333 336 336 334 334 337 342 339 341 340 341 345 348 345
306 306 307 307 307 307 307 307 307 307 307 307 307 307 322 325 324 322 323 320 322 321 325 327 330 330 331 330 331 334 334 334 338 338 337 339 341 341 340 341 345 346 347 347 344
307 307 307 307 307 307 307 307 307 307 307 308 307 311 322 325 322 322 320 322 324 324 328 328 329 329 331 332 334 334 334 334 336 339 338 337 341 343 342 343 346 345 345 345 345
308 308 308 308 307 307 307 308 308 307 307 308 308 315 329 323 323 323 321 323 324 325 326 326 327 328 329 332 333 334 335 337 337 337 336 336 345 342 342 343 343 343 346 346 347
308 308 308 308 307 307 308 308 308 308 308 308 316 326 327 322 323 323 324 324 324 325 326 327 327 329 331 333 334 335 338 339 336 339 338 340 344 340 341 344 345 347 347 349 348
309 309 308 308 307 308 308 308 310 309 315 318 319 324 325 324 326 326 326 327 327 328 329 330 329 330 333 333 335 336 335 338 332 339 338 340 341 339 341 342 345 346 346 347 345
309 309 309 308 307 308 308 317 323 324 318 324 325 327 325 326 326 327 328 328 329 330 330 330 331 333 333 334 331 333 335 335 334 332 338 339 340 339 339 342 345 343 344 343 343
310 309 309 308 308 308 308 320 320 320 321 323 324 325 325 325 326 328 328 329 330 330 331 332 331 332 330 329 332 332 335 334 333 333 338 339 342 338 337 338 342 344 345 344 343
310 310 310 308 308 308 314 319 319 320 323 325 323 324 325 326 327 328 329 330 331 331 332 331 332 330 330 332 331 331 333 333 332 338 339 340 344 341 341 342 340 340 341 340 338
310 310 310 309 310 318 318 320 320 320 326 325 323 324 325 327 328 329 329 330 331 331 331 331 332 329 330 333 329 331 331 331 339 338 347 339 347 339 340 335 336 341 337 336 336
310 311 310 309 316 318 321 320 320 322 335 325 323 325 326 327 328 329 329 329 330 331 330 331 329 331 333 333 330 330 332 337 339 342 342 342 340 344 341 341 342 339 336 335 333
311 311 310 312 311 315 318 320 322 327 335 325 325 324 325 327 329 328 328 329 330 331 329 330 332 333 333 330 333 334 337 337 339 338 351 344 342 351 344 336 340 338 335 334 332
313 310 310 316 321 317 320 323 325 330 329 326 326 324 325 325 328 329 328 329 331 330 330 332 331 331 329 330 332 332 333 335 342 345 346 341 346 346 341 339 341 338 336 333 330
314 310 313 312 317 317 321 327 331 326 330 327 326 324 324 325 327 329 328 330 330 330 334 333 335 333 332 330 330 330 334 340 343 332 338 340 346 349 338 337 337 336 335 332 330
314 320 318 321 316 317 325 328 333 330 328 326 326 325 324 325 325 327 329 329 329 330 335 337 337 334 331 329 330 333 333 332 334 338 341 345 345 341 339 338 337 336 334 333 331
317 322 321 319 317 318 326 329 330 331 330 328 326 325 326 326 325 326 328 329 329 329 334 339 339 334 333 330 334 335 335 335 333 335 338 345 347 345 341 339 338 337 335 334 331
320 324 322 319 318 322 326 330 329 330 329 329 327 325 326 326 325 327 328 328 329 329 333 333 334 335 334 336 330 329 333 333 333 337 339 338 340 341 342 341 338 336 334 333 330
324 325 322 318 319 322 324 327 321 328 328 329 329 330 327 327 327 328 328 329 328 329 331 334 336 334 340 338 335 330 330 335 335 337 337 338 349 338 339 338 337 335 334 332 330
324 324 320 317 319 321 323 325 327 327 329 329 329 331 328 328 327 332 338 335 332 329 338 338 333 334 339 339 338 333 332 332 334 342 345 341 343 338 337 337 336 335 334 332 330
325 325 323 321 323 328 328 326 328 327 328 330 327 330 330 329 332 332 335 334 333 332 336 348 339 337 340 337 329 331 333 333 334 338 335 339 341 341 339 338 336 335 333 332 330
325 326 323 320 321 328 331 326 328 328 328 330 331 328 331 333 332 330 332 335 335 333 336 342 334 334 332 331 329 330 331 331 332 331 334 335 341 341 340 340 338 336 333 332 329
330 332 331 324 322 327 327 328 326 327 331 331 333 332 331 333 334 330 333 336 339 336 338 344 343 336 334 333 332 331 331 332 332 333 334 339 341 338 336 338 338 334 333 332 328
325 328 330 327 327 325 328 328 328 330 331 333 331 336 330 329 330 330 339 340 341 343 347 349 343 338 335 339 337 333 336 334 332 333 336 337 336 335 335 336 335 334 331 331 328
Wind_Speed
10 10 11 12 13 14 15 16 16 18 18 21 23 25 26 29 30 10 7 2 4 8 7 10 12 16 21 20 18 8 10 6 9 12 3 6 27 20 25 21 10 13 16 17 18
10 11 12 13 13 14 15 16 17 18 18 20 23 24 26 30 23 17 4 2 6 8 8 11 12 14 14 17 4 5 3 7 12 16 10 28 16 8 7 9 4 9 17 18 17
11 12 13 13 14 15 15 16 17 18 19 20 23 25 26 28 10 4 4 2 4 11 9 17 21 17 18 11 6 4 8 10 11 21 27 16 23 10 21 13 14 16 17 15 26
12 12 13 14 15 15 15 16 17 17 18 19 22 26 27 5 3 4 1 4 6 8 9 18 12 16 18 5 5 12 7 7 14 24 27 25 16 16 5 19 25 21 14 25 17
12 13 13 14 15 15 15 15 16 16 17 18 20 23 13 7 3 3 2 7 8 9 12 16 15 15 13 3 2 7 24 3 21 24 27 20 9 24 10 24 20 18 23 24 13
12 14 14 15 15 15 14 15 15 15 16 16 18 20 7 11 5 2 4 7 10 12 14 18 15 12 12 7 9 14 17 18 20 19 18 15 9 12 15 18 23 18 17 19 17
12 14 16 16 15 14 14 13 14 14 15 15 16 12 8 12 5 0 6 10 11 13 14 12 10 13 15 13 23 16 18 19 14 20 12 17 10 13 16 17 19 16 15 16 17
12 14 16 15 13 12 13 13 13 14 14 13 15 7 7 1 6 6 8 10 10 12 15 13 13 14 13 12 13 10 8 6 9 13 2 1 5 3 16 18 18 10 15 14 17
12 14 14 13 11 11 12 12 13 14 14 12 9 6 6 3 9 10 12 12 11 14 13 12 11 11 13 14 1 8 9 16 5 10 13 11 12 13 19 16 14 15 12 15 16
13 15 13 12 11 11 12 13 15 14 8 4 11 8 10 12 6 8 12 11 10 10 11 12 11 11 3 8 9 13 9 23 7 15 11 13 13 9 13 16 18 20 2 17 15
13 14 12 10 9 10 11 10 5 5 9 10 6 11 10 3 3 9 11 8 11 8 14 15 9 11 24 13 14 13 11 12 17 3 9 13 11 14 18 8 19 13 13 11 11
15 13 11 9 8 9 9 6 7 6 9 19 17 7 2 9 10 14 14 9 11 14 18 15 3 9 8 6 13 11 12 4 11 3 8 4 26 17 23 25 14 14 17 13 12
15 11 9 8 9 10 10 14 7 9 6 15 12 11 10 11 12 15 15 17 13 17 20 6 4 4 7 8 3 6 10 4 10 14 21 22 24 13 11 13 30 7 11 17 15
14 9 8 7 7 7 12 3 5 6 5 13 9 6 15 12 8 17 20 18 12 19 10 1 7 5 3 8 12 3 11 13 22 10 5 7 4 8 9 10 30 8 12 13 14
13 8 6 6 12 8 5 5 8 1 5 18 14 7 8 13 5 16 18 11 18 13 5 6 0 6 10 3 9 13 11 18 22 15 8 11 10 10 18 12 12 11 11 11 10
13 7 5 5 10 13 8 8 2 5 5 12 11 12 16 17 14 13 9 15 17 15 9 12 7 9 6 5 10 12 9 3 5 4 2 18 9 4 7 10 10 11 10 8 11
14 7 9 10 6 2 6 6 5 7 9 12 16 16 16 16 17 15 15 14 10 8 12 5 5 6 3 8 5 9 14 4 2 5 3 7 6 6 14 17 10 13 11 9 13
16 9 7 13 10 7 8 6 8 11 7 11 12 19 15 15 16 9 11 13 15 15 10 3 5 2 3 5 7 13 7 6 12 12 4 17 7 6 13 13 12 12 10 12 11
17 8 7 9 11 7 6 9 6 7 5 3 10 15 13 16 8 11 14 15 13 14 4 5 8 3 4 7 7 8 10 9 8 16 5 7 4 5 3 10 12 11 11 10 7
10 14 15 8 7 7 6 14 12 5 6 8 7 9 11 14 11 11 14 12 9 10 7 14 8 6 5 5 4 7 5 7 6 6 11 8 7 5 10 9 10 8 10 9 2
6 5 9 7 7 6 9 14 8 7 2 3 9 8 9 8 13 13 8 9 3 1 6 5 4 4 6 3 9 7 4 6 6 5 6 7 8 11 10 12 6 11 8 8 9
11 6 9 11 6 7 12 16 5 3 8 6 6 11 6 6 10 11 12 9 9 6 7 3 2 4 17 20 13 4 6 7 5 11 9 7 1 10 10 10 7 9 10 11 4
7 7 7 13 7 10 17 22 5 6 7 8 6 8 4 3 3 11 9 6 7 6 2 3 2 7 4 8 13 4 7 1 3 6 2 8 4 8 11 10 7 10 8 7 5
5 4 5 7 12 12 13 16 5 10 7 4 8 6 0 6 6 4 12 4 5 2 4 3 4 3 8 10 6 2 5 3 2 4 10 9 6 6 9 10 10 10 1 8 8
4 6 5 8 11 13 14 13 11 9 9 9 9 13 8 5 7 5 5 10 5 3 2 2 4 11 6 5 5 8 5 5 8 8 5 9 14 5 4 2 7 9 2 1 10
5 6 7 7 12 13 10 12 16 12 9 10 10 12 14 9 9 8 8 7 7 6 6 2 5 7 11 9 4 8 6 4 5 1 4 12 10 3 7 14 9 3 1 7 10
15 14 6 6 9 11 11 12 11 7 5 8 12 10 15 15 11 12 12 8 6 9 8 7 6 2 10 11 5 8 7 7 5 2 4 5 3 6 1 5 3 5 4 9 8
Wind_Direction
308 309 312 313 311 314 315 316 320 320 327 327 324 326 327 325 325 301 244 110 248 269 242 271 253 262 263 259 264 278 101 194 152 117 86 326 84 59 71 328 353 341 102 115 134
306 309 312 311 311 311 313 313 316 318 323 325 323 325 325 331 321 276 180 222 268 241 231 245 249 246 260 265 199 241 268 102 79 131 126 54 67 72 113 176 307 335 102 120 96
305 311 312 311 309 309 310 310 312 315 320 325 322 324 325 327 280 105 145 191 231 203 254 281 271 282 266 268 39 321 37 34 63 88 82 126 79 252 132 154 195 216 129 132 99
311 312 310 311 309 307 306 307 308 313 318 324 323 325 328 309 353 110 134 200 196 212 256 275 257 260 262 272 45 285 78 342 61 90 82 51 356 256 140 167 186 211 117 67 78
314 312 314 312 308 305 304 302 305 310 315 322 323 330 343 252 266 68 174 197 200 209 245 259 252 266 300 58 293 341 16 349 89 85 101 133 212 227 56 118 167 90 90 104 97
313 313 316 313 309 306 303 301 303 305 311 319 322 333 294 272 14 110 167 193 206 206 240 263 285 346 296 351 21 53 84 343 86 95 82 71 24 53 79 93 84 80 78 83 73
315 319 316 311 309 306 302 301 299 301 306 315 317 335 273 261 311 224 197 204 213 215 253 250 317 309 307 339 36 35 42 353 11 112 155 241 62 73 73 89 84 79 84 85 84
324 320 315 313 311 307 302 298 298 297 299 308 305 306 267 223 268 215 197 205 221 234 265 303 323 299 293 6 44 56 72 163 266 118 146 68 124 311 113 107 99 104 84 82 67
322 323 321 316 313 310 303 298 291 290 295 298 298 221 283 200 214 207 203 207 212 242 258 278 294 280 279 69 335 221 126 267 217 125 147 128 119 258 119 117 126 110 119 104 86
330 329 325 318 317 312 306 299 290 290 291 264 269 276 257 222 144 179 198 229 203 233 249 240 242 241 68 248 247 218 146 210 102 172 94 109 117 114 129 141 117 90 65 74 71
330 327 321 314 316 311 315 298 222 195 225 240 243 249 160 104 170 211 186 222 218 227 238 214 236 266 191 222 256 51 64 41 342 68 132 115 99 66 46 232 105 112 109 109 98
334 329 319 315 310 301 301 268 29 323 297 229 258 281 279 234 181 199 176 203 219 234 227 251 268 316 24 325 20 12 89 132 244 315 103 118 43 25 0 336 75 115 127 116 110
337 328 315 308 302 282 240 288 324 325 267 219 206 237 196 198 205 181 190 216 204 237 252 242 249 27 296 43 56 355 323 339 299 99 60 51 9 71 278 333 336 35 62 85 78
340 326 309 306 294 276 242 277 299 336 275 155 189 239 187 209 225 185 200 218 227 243 257 32 229 285 309 352 13 350 17 343 30 64 54 16 239 217 91 95 263 94 76 94 108
344 324 299 276 307 266 13 318 339 235 267 146 169 216 200 203 176 187 204 260 267 259 321 355 219 44 56 244 343 357 3 65 88 92 123 238 241 140 175 191 278 112 113 108 110
347 321 276 274 259 259 311 315 277 236 220 162 143 179 190 210 208 182 226 245 283 300 170 257 57 95 162 320 29 341 76 280 52 176 158 246 206 323 198 176 231 123 99 90 99
345 309 248 265 301 337 299 261 224 250 132 152 161 177 206 197 232 170 203 226 250 243 221 173 205 80 295 325 28 320 307 311 226 224 280 282 170 150 198 192 177 116 109 77 62
339 297 272 255 273 292 289 242 253 244 182 139 168 171 197 200 221 181 204 226 227 248 300 151 23 345 99 16 347 298 336 356 335 320 66 42 35 353 79 89 94 88 94 69 54
329 289 244 250 233 264 261 224 228 319 61 206 198 183 191 188 223 190 221 226 205 240 203 18 214 156 24 334 358 342 335 338 292 298 107 130 324 121 295 133 119 107 97 71 47
322 283 252 178 189 219 244 253 288 61 15 314 224 204 190 176 209 204 214 229 223 237 16 155 199 217 125 281 166 282 338 341 337 328 342 176 137 189 205 151 116 141 119 94 20
286 237 133 165 177 224 230 235 234 112 151 260 253 224 201 174 211 205 210 202 16 100 257 322 2 127 254 9 347 322 335 8 324 328 324 347 74 107 157 141 132 101 95 109 72
279 261 145 169 201 224 234 238 300 73 160 246 299 286 231 206 214 247 237 192 148 285 235 19 4 327 44 358 347 358 13 30 359 348 1 346 316 11 107 112 106 97 87 65 69
265 231 163 194 214 213 238 263 164 238 230 194 234 281 184 281 218 270 97 36 103 216 25 33 231 264 13 0 283 291 70 233 55 287 346 298 35 242 94 100 111 108 87 133 98
272 208 142 213 251 304 257 242 207 218 290 296 218 264 238 261 228 293 117 104 144 140 344 312 299 291 170 245 357 252 175 203 185 280 344 34 146 136 149 165 136 114 123 109 80
247 252 155 194 218 242 255 229 226 209 200 212 226 221 213 239 227 247 114 126 159 90 200 275 262 268 283 3 311 312 314 34 2 350 343 3 66 76 153 184 110 104 158 106 83
295 351 338 249 213 227 236 241 221 225 182 193 241 202 226 221 246 240 172 164 174 177 207 204 267 292 316 271 251 294 289 161 266 12 321 47 25 359 53 99 99 161 178 81 71
5 317 270 266 204 225 230 242 235 243 148 298 206 264 201 219 233 262 291 165 181 167 213 182 253 293 274 347 301 287 356 130 103 226 62 3 60 49 26 132 139 192 177 89 78